LUCH (OLYMP-K 1) (40258 NORAD) Tracking and Keplerian Element Data

This shows tracking and keplerian element data for the satellite.

Feedback or suggestion? Click here.




ElementValue
Catalog40258
NameLUCH (OLYMP-K 1)
Epoch Orbit3599
Epoch Day34.82687193
Epoch Year2025
RAAN88.7439
Inclination0.6037
Eccentricity0.0004596
Argument of Perigee237.2997
Mean Anonmoly87.7448
Mean Motion1.00270801
Decay Rate-1.38E-06
L11 40258U 14058A 25034.82687193 -.00000138 00000+0 00000+0 0 9996
L22 40258 0.6037 88.7439 0004596 237.2997 87.7448 1.00270801 35992



Live tracking and technical data element details for LUCH (OLYMP-K 1) (NORAD 40258). LUCH (OLYMP-K 1) can be tracked NOW for your location showing map with azimuth and elevation plus other details from your city location.







IsCatalogInMostPopularTable: catalog: 40258, numindb: 1032
Update: records affected: 1



GetName: 40258 LUCH (OLYMP-K 1)

Hit Count: updated at: Thu, 19 Jun 2025 10:20:10 GMT